Hourly Weather Rudy

Today, 16 June, Wednesday

Time Temperature Precipitation Wind Pressure Humidity
00:00 +18°C° 0 mm 1 mps 751 mmHg 77%
01:00 +18°C° 0 mm 1 mps 751 mmHg 75%
02:00 +16°C° 0 mm 1 mps 751 mmHg 79%
03:00 +16°C° 0 mm 1 mps 751 mmHg 83%
04:00 +15°C° 0 mm 1 mps 751 mmHg 87%
05:00 +17°C° 0 mm 2 mps 751 mmHg 85%
06:00 +18°C° 0 mm 2 mps 751 mmHg 82%
07:00 +19°C° 0 mm 3 mps 752 mmHg 79%
08:00 +20°C° 0 mm 2 mps 752 mmHg 76%
09:00 +21°C° 0 mm 2 mps 752 mmHg 73%
10:00 +23°C° 0 mm 2 mps 752 mmHg 69%
11:00 +24°C° 0.2 mm 2 mps 752 mmHg 67%
12:00 +25°C° 0.2 mm 2 mps 752 mmHg 65%
13:00 +25°C° 0.2 mm 3 mps 752 mmHg 62%
14:00 +25°C° 0.2 mm 3 mps 752 mmHg 63%
15:00 +25°C° 0.2 mm 3 mps 752 mmHg 63%
16:00 +25°C° 0.2 mm 4 mps 752 mmHg 63%
17:00 +22°C° 0 mm 3 mps 752 mmHg 68%
18:00 +21°C° 0 mm 3 mps 752 mmHg 73%
19:00 +19°C° 0 mm 3 mps 752 mmHg 78%
20:00 +18°C° 0 mm 3 mps 752 mmHg 77%
21:00 +17°C° 0 mm 3 mps 753 mmHg 76%
22:00 +14°C° 0 mm 3 mps 753 mmHg 75%
23:00 +15°C° 0 mm 2 mps 753 mmHg 78%

Tomorrow, 17 June, Thursday

Time Temperature Precipitation Wind Pressure Humidity
00:00 +14°C° 0 mm 2 mps 753 mmHg 81%
01:00 +13°C° 0 mm 2 mps 753 mmHg 83%
02:00 +13°C° 0 mm 2 mps 753 mmHg 85%
03:00 +13°C° 0 mm 2 mps 753 mmHg 86%
04:00 +13°C° 0 mm 2 mps 753 mmHg 87%
05:00 +14°C° 0 mm 3 mps 754 mmHg 81%
06:00 +17°C° 0 mm 3 mps 754 mmHg 76%
07:00 +19°C° 0 mm 3 mps 754 mmHg 70%
08:00 +20°C° 0 mm 3 mps 754 mmHg 64%
09:00 +22°C° 0 mm 3 mps 754 mmHg 58%
10:00 +24°C° 0 mm 3 mps 754 mmHg 52%
11:00 +25°C° 0 mm 3 mps 754 mmHg 50%
12:00 +25°C° 0 mm 3 mps 754 mmHg 47%
13:00 +26°C° 0 mm 3 mps 754 mmHg 45%
14:00 +26°C° 0 mm 3 mps 754 mmHg 47%
15:00 +26°C° 0 mm 3 mps 754 mmHg 48%
16:00 +26°C° 0 mm 4 mps 754 mmHg 50%
17:00 +25°C° 0 mm 3 mps 754 mmHg 58%
18:00 +22°C° 0 mm 3 mps 754 mmHg 66%
19:00 +21°C° 0 mm 3 mps 754 mmHg 74%
20:00 +20°C° 0 mm 3 mps 754 mmHg 78%
21:00 +19°C° 0 mm 3 mps 754 mmHg 82%
22:00 +18°C° 0 mm 3 mps 754 mmHg 86%
23:00 +18°C° 0 mm 3 mps 754 mmHg 87%

Day after tomorrow, 18 June, Friday

Time Temperature Precipitation Wind Pressure Humidity
00:00 +17°C° 0 mm 3 mps 754 mmHg 89%
01:00 +17°C° 0 mm 3 mps 754 mmHg 91%
02:00 +17°C° 0 mm 3 mps 754 mmHg 91%
03:00 +17°C° 0 mm 3 mps 754 mmHg 91%
04:00 +17°C° 0 mm 3 mps 754 mmHg 91%
05:00 +19°C° 0 mm 3 mps 754 mmHg 85%
06:00 +21°C° 0 mm 4 mps 754 mmHg 79%
07:00 +23°C° 0 mm 4 mps 754 mmHg 73%
08:00 +25°C° 0 mm 5 mps 754 mmHg 69%
09:00 +26°C° 0 mm 5 mps 754 mmHg 64%
10:00 +27°C° 0 mm 6 mps 754 mmHg 60%
11:00 +28°C° 0 mm 5 mps 754 mmHg 57%
12:00 +28°C° 0 mm 5 mps 754 mmHg 55%
13:00 +29°C° 0 mm 5 mps 754 mmHg 53%
14:00 +29°C° 0 mm 5 mps 753 mmHg 55%
15:00 +28°C° 0 mm 5 mps 753 mmHg 57%
16:00 +28°C° 0 mm 5 mps 753 mmHg 59%
17:00 +27°C° 0 mm 5 mps 753 mmHg 65%
18:00 +25°C° 0 mm 4 mps 753 mmHg 72%
19:00 +23°C° 0 mm 4 mps 753 mmHg 78%
20:00 +22°C° 0 mm 4 mps 753 mmHg 81%
21:00 +21°C° 0 mm 4 mps 753 mmHg 85%
22:00 +20°C° 0 mm 4 mps 753 mmHg 88%
23:00 +19°C° 0 mm 3 mps 753 mmHg 90%

19 June, Saturday

Time Temperature Precipitation Wind Pressure Humidity
00:00 +19°C° 0 mm 3 mps 753 mmHg 92%
01:00 +18°C° 0 mm 3 mps 753 mmHg 94%
02:00 +18°C° 0 mm 3 mps 753 mmHg 94%
03:00 +18°C° 0 mm 3 mps 753 mmHg 94%
04:00 +18°C° 0 mm 3 mps 753 mmHg 95%
05:00 +19°C° 0 mm 4 mps 753 mmHg 88%
06:00 +21°C° 0 mm 5 mps 753 mmHg 82%
07:00 +23°C° 0 mm 5 mps 753 mmHg 75%
08:00 +24°C° 0 mm 6 mps 753 mmHg 71%
09:00 +26°C° 0 mm 6 mps 753 mmHg 66%
10:00 +28°C° 0 mm 6 mps 753 mmHg 61%
11:00 +28°C° 0 mm 6 mps 753 mmHg 59%
12:00 +29°C° 0 mm 6 mps 753 mmHg 57%
13:00 +30°C° 0 mm 6 mps 753 mmHg 55%
14:00 +29°C° 0 mm 5 mps 753 mmHg 56%
15:00 +29°C° 0 mm 5 mps 752 mmHg 57%
16:00 +29°C° 0 mm 5 mps 752 mmHg 58%
17:00 +28°C° 0 mm 5 mps 752 mmHg 65%
18:00 +26°C° 0 mm 4 mps 752 mmHg 71%
19:00 +25°C° 0 mm 4 mps 752 mmHg 78%
20:00 +23°C° 0 mm 4 mps 752 mmHg 82%
21:00 +22°C° 0 mm 4 mps 753 mmHg 86%
22:00 +20°C° 0 mm 4 mps 753 mmHg 89%
23:00 +19°C° 0 mm 3 mps 753 mmHg 91%

20 June, Sunday

Time Temperature Precipitation Wind Pressure Humidity
00:00 +19°C° 0 mm 3 mps 753 mmHg 93%
01:00 +18°C° 0 mm 3 mps 753 mmHg 94%
02:00 +18°C° 0 mm 3 mps 753 mmHg 95%
03:00 +18°C° 0 mm 3 mps 753 mmHg 95%
04:00 +17°C° 0 mm 2 mps 752 mmHg 95%
05:00 +19°C° 0 mm 3 mps 752 mmHg 88%
06:00 +21°C° 0 mm 4 mps 753 mmHg 82%
07:00 +23°C° 0 mm 4 mps 753 mmHg 75%
08:00 +25°C° 0 mm 5 mps 752 mmHg 71%
09:00 +26°C° 0 mm 5 mps 752 mmHg 66%
10:00 +27°C° 0 mm 6 mps 752 mmHg 61%
11:00 +28°C° 0 mm 6 mps 752 mmHg 59%
12:00 +29°C° 0 mm 6 mps 751 mmHg 56%
13:00 +29°C° 0 mm 6 mps 751 mmHg 53%
14:00 +29°C° 0 mm 6 mps 751 mmHg 55%
15:00 +29°C° 0 mm 5 mps 751 mmHg 58%
16:00 +29°C° 0 mm 5 mps 751 mmHg 60%
17:00 +27°C° 0 mm 5 mps 751 mmHg 66%
18:00 +26°C° 0 mm 5 mps 750 mmHg 72%
19:00 +25°C° 0 mm 5 mps 750 mmHg 78%
20:00 +23°C° 0 mm 4 mps 750 mmHg 81%
21:00 +22°C° 0 mm 4 mps 750 mmHg 84%
22:00 +21°C° 0 mm 4 mps 750 mmHg 87%
23:00 +21°C° 0 mm 4 mps 750 mmHg 88%

21 June, Monday

Time Temperature Precipitation Wind Pressure Humidity
00:00 +20°C° 0 mm 4 mps 750 mmHg 90%
01:00 +19°C° 0 mm 3 mps 750 mmHg 92%
02:00 +19°C° 0 mm 3 mps 750 mmHg 93%
03:00 +19°C° 0 mm 3 mps 750 mmHg 94%
04:00 +18°C° 0 mm 3 mps 750 mmHg 95%
05:00 +20°C° 0 mm 4 mps 750 mmHg 88%
06:00 +22°C° 0 mm 5 mps 750 mmHg 81%
07:00 +23°C° 0 mm 6 mps 750 mmHg 74%
08:00 +26°C° 0 mm 6 mps 750 mmHg 68%
09:00 +27°C° 0 mm 6 mps 750 mmHg 62%
10:00 +28°C° 0 mm 7 mps 749 mmHg 56%
11:00 +29°C° 0 mm 7 mps 749 mmHg 54%
12:00 +29°C° 0 mm 7 mps 749 mmHg 52%
13:00 +30°C° 0 mm 6 mps 749 mmHg 50%
14:00 +29°C° 0 mm 6 mps 748 mmHg 53%
15:00 +29°C° 0 mm 6 mps 748 mmHg 55%
16:00 +29°C° 0 mm 5 mps 748 mmHg 58%
17:00 +28°C° 0 mm 5 mps 748 mmHg 64%
18:00 +26°C° 0 mm 4 mps 748 mmHg 69%
19:00 +25°C° 0 mm 4 mps 747 mmHg 75%
20:00 +23°C° 0 mm 4 mps 747 mmHg 78%
21:00 +22°C° 0 mm 4 mps 747 mmHg 82%
22:00 +21°C° 0 mm 3 mps 747 mmHg 85%
23:00 +21°C° 0 mm 3 mps 746 mmHg 87%
Show more